Tracking 19800 objects as of 23-Jul-2019
HD Live streaming from Space Station
objects crossing your sky now

FLOCK 3R 16

Track FLOCK 3R 16 now!
10-day predictions
FLOCK 3R 16 is classified as:


NORAD ID: 43735
Int'l Code: 2018-096S
Perigee: 476.1 km
Apogee: 505.0 km
Inclination: 97.5 °
Period: 94.3 minutes
Semi major axis: 6861 km
RCS: Unknown
Launch date: November 29, 2018
Source: United States (US)
Launch site: SRIHARIKOTA (SRI)
aabbcc
Your satellite tracking list
Your tracking list is empty




NASA's NSSDC Master Catalog

Two Line Element Set (TLE):
1 43735U 18096S   19204.17908801  .00001462  00000-0  56956-4 0  9994
2 43735  97.4589 274.4004 0021034 212.5022 147.4923 15.27450980 36023
Source of the keplerian elements: AFSPC